User: anonymous   Login
Location: Unspecified
(0.0000°N, 0.0000°E)
Time: 22:16:21
(UTC+00:00)
Language:

STARLINK-32556 - Orbit

View from above orbital plane
View from above orbital plane
View from above satellite
View from above satellite

Ground track
Ground track

The orbit is defined by the following mean orbital elements,

1 61858U          26145.42179950 +.00000000 +00000-0 -85329-4 0 00008
2 61858  43.0000 164.5762 0001275 276.8504  83.2203 15.27572651    04
Epoch (UTC): 25 May 2026 10:07:23
Eccentricity: 0.0001275
inclination: 43.0000°
perigee height: 482 km
apogee height: 484 km
right ascension of ascending node: 164.5762°
argument of perigee: 276.8504°
revolutions per day: 15.27572651
mean anomaly at epoch: 83.2203°

The dashed part of the orbit path shows where the satellite is in the earth's shadow,  

DLR